This demonstration page uses our WeatherBlox Daily Observations layout. Learn more.

Left ArrowRight Arrow

Hourly Observations for October 15, 2015

Temp ( °F °C ) Dew Point ( °F °C ) Humidity (%) Winds ( mph kmh ) Pressure ( in mb ) Visibility ( mi km ) Precip ( " mm )
12:15 am 00:15 Cloudy 50 10 46 8 88 88 WNW 5 7 29.97 1015 10 16 N/A
12:35 am 00:35 Cloudy 52 11 46 8 82 82 W 5 7 29.97 1015 10 16 N/A
12:55 am 00:55 Cloudy 52 11 46 8 82 82 NNW 3 6 29.97 1015 10 16 N/A
1:15 am 01:15 Cloudy 52 11 45 7 77 77 NW 5 7 29.97 1015 10 16 N/A
1:35 am 01:35 Mostly Cloudy 50 10 46 8 88 88 NW 3 6 29.97 1015 10 16 N/A
1:55 am 01:55 Mostly Cloudy 52 11 46 8 82 82 N N/A 29.97 1015 10 16 N/A
2:15 am 02:15 Cloudy 50 10 46 8 88 88 N N/A 30.00 1016 10 16 N/A
2:35 am 02:35 Cloudy 50 10 46 8 88 88 NW 3 6 30.00 1016 10 16 N/A
2:55 am 02:55 Cloudy 50 10 48 9 94 94 NW 5 7 30.00 1016 10 16 N/A
3:15 am 03:15 Cloudy 50 10 50 10 100 100 N N/A 30.00 1016 10 16 N/A
3:35 am 03:35 Cloudy 52 11 50 10 94 94 WNW 3 6 30.00 1016 10 16 N/A
3:55 am 03:55 Cloudy 52 11 50 10 94 94 NW 3 6 30.00 1016 10 16 N/A
4:15 am 04:15 Cloudy 52 11 50 10 94 94 WNW 5 7 30.00 1016 10 16 N/A
4:35 am 04:35 Cloudy 54 12 48 9 82 82 NNW 6 9 30.00 1016 10 16 N/A
4:55 am 04:55 Cloudy 52 11 48 9 88 88 NW 6 9 30.03 1017 10 16 N/A
5:15 am 05:15 Partly Cloudy 52 11 46 8 82 82 NNW 6 9 30.03 1017 10 16 N/A
5:35 am 05:35 Partly Cloudy 50 10 46 8 88 88 NW 6 9 30.03 1017 10 16 N/A
5:55 am 05:55 Partly Cloudy 50 10 46 8 88 88 N N/A 30.03 1017 10 16 N/A
6:15 am 06:15 Clear 50 10 46 8 88 88 N N/A 30.09 1019 10 16 N/A
6:35 am 06:35 Clear 48 9 46 8 94 94 N N/A 30.09 1019 10 16 N/A
6:55 am 06:55 Partly Cloudy 50 10 46 8 88 88 W 3 6 30.09 1019 10 16 N/A
7:15 am 07:15 Mostly Cloudy 46 8 46 8 100 100 W 3 6 30.09 1019 10 16 N/A
7:35 am 07:35 Partly Cloudy 46 8 46 8 100 100 WNW 3 6 30.09 1019 10 16 N/A
7:55 am 07:55 Sunny 50 10 46 8 88 88 N N/A 30.09 1019 10 16 N/A
8:15 am 08:15 Sunny 52 11 46 8 82 82 N N/A 30.09 1019 10 16 N/A
8:35 am 08:35 Sunny 54 12 48 9 82 82 W 5 7 30.09 1019 10 16 N/A
8:55 am 08:55 Sunny 55 13 50 10 82 82 W 7 11 30.09 1019 10 16 N/A
9:15 am 09:15 Sunny 55 13 50 10 82 82 NW 8 13 30.09 1019 10 16 N/A
9:35 am 09:35 Sunny 59 15 48 9 68 68 NW 9 15 30.12 1020 10 16 N/A
9:55 am 09:55 Sunny 59 15 46 8 63 63 NNW 8 13 30.12 1020 10 16 N/A
10:15 am 10:15 Sunny 59 15 48 9 68 68 NW 10 17 30.12 1020 10 16 N/A
10:35 am 10:35 Sunny 61 16 48 9 63 63 WNW 8 13 30.12 1020 10 16 N/A
10:55 am 10:55 Partly Cloudy 61 16 46 8 59 59 W 10 17 30.12 1020 10 16 N/A
11:15 am 11:15 Partly Cloudy 63 17 46 8 56 56 NW 14 22 30.12 1020 10 16 N/A
11:35 am 11:35 Partly Cloudy 63 17 46 8 56 56 WNW 12 19 30.12 1020 10 16 N/A
11:55 am 11:55 Partly Cloudy 63 17 46 8 56 56 WNW 12 19 30.09 1019 10 16 N/A
12:15 pm 12:15 Sunny 63 17 45 7 52 52 WNW 13 20 30.09 1019 10 16 N/A
12:35 pm 12:35 Sunny 64 18 46 8 52 52 W 12 19 30.09 1019 10 16 N/A
12:55 pm 12:55 Partly Cloudy 64 18 45 7 49 49 W 9 15 30.09 1019 10 16 N/A
1:15 pm 13:15 Partly Cloudy 66 19 46 8 49 49 W 13 20 30.09 1019 10 16 N/A
1:35 pm 13:35 Partly Cloudy 64 18 45 7 49 49 W 10 17 30.06 1018 10 16 N/A
1:55 pm 13:55 Partly Cloudy 64 18 43 6 46 46 NW 12 19 30.06 1018 10 16 N/A
2:15 pm 14:15 Mostly Cloudy 66 19 45 7 46 46 W 9 15 30.06 1018 10 16 N/A
2:35 pm 14:35 Mostly Cloudy 68 20 43 6 40 40 NW 10 17 30.03 1017 10 16 N/A
2:55 pm 14:55 Mostly Cloudy 68 20 45 7 43 43 WNW 14 22 30.03 1017 10 16 N/A
3:15 pm 15:15 Partly Cloudy 68 20 45 7 43 43 W 9 15 30.03 1017 10 16 N/A
3:35 pm 15:35 Partly Cloudy 68 20 45 7 43 43 WSW 7 11 30.03 1017 10 16 N/A
3:55 pm 15:55 Sunny 68 20 45 7 43 43 W 8 13 30.03 1017 10 16 N/A
4:15 pm 16:15 Sunny 68 20 43 6 40 40 N N/A 30.03 1017 10 16 N/A
4:35 pm 16:35 Sunny 68 20 45 7 43 43 W 9 15 30.03 1017 10 16 N/A
4:55 pm 16:55 Sunny 68 20 43 6 40 40 W 5 7 30.03 1017 10 16 N/A
5:15 pm 17:15 Sunny 68 20 43 6 40 40 WNW 3 6 30.03 1017 10 16 N/A
5:35 pm 17:35 Sunny 66 19 45 7 46 46 N N/A 30.03 1017 10 16 N/A
5:55 pm 17:55 Sunny 66 19 43 6 43 43 N N/A 30.03 1017 10 16 N/A
6:15 pm 18:15 Sunny 64 18 45 7 49 49 N N/A 30.03 1017 10 16 N/A
6:35 pm 18:35 Clear 64 18 45 7 49 49 S 3 6 30.03 1017 10 16 N/A
6:55 pm 18:55 Clear 61 16 46 8 59 59 S 3 6 30.03 1017 10 16 N/A
7:15 pm 19:15 Clear 55 13 50 10 82 82 N N/A 30.03 1017 10 16 N/A
7:35 pm 19:35 Clear 55 13 50 10 82 82 N N/A 30.03 1017 10 16 N/A
7:55 pm 19:55 Clear 55 13 50 10 82 82 N N/A 30.03 1017 10 16 N/A
8:15 pm 20:15 Clear 54 12 50 10 88 88 N N/A 30.03 1017 10 16 N/A
8:35 pm 20:35 Clear 52 11 50 10 94 94 N N/A 30.03 1017 10 16 N/A
8:55 pm 20:55 Clear 52 11 48 9 88 88 N N/A 30.03 1017 10 16 N/A
9:15 pm 21:15 Clear 52 11 48 9 88 88 N N/A 30.03 1017 10 16 N/A
9:35 pm 21:35 Clear 48 9 46 8 94 94 N N/A 30.06 1018 10 16 N/A
9:55 pm 21:55 Clear 50 10 48 9 94 94 N N/A 30.03 1017 10 16 N/A
10:15 pm 22:15 Clear 50 10 48 9 94 94 N N/A 30.03 1017 10 16 N/A
10:35 pm 22:35 Clear 50 10 46 8 88 88 N N/A 30.03 1017 10 16 N/A
10:55 pm 22:55 Clear 50 10 46 8 88 88 N N/A 30.00 1016 10 16 N/A
11:15 pm 23:15 Clear 50 10 46 8 88 88 N N/A 30.00 1016 10 16 N/A
11:35 pm 23:35 Clear 46 8 45 7 93 93 N N/A 30.03 1017 10 16 N/A
11:55 pm 23:55 Clear 46 8 46 8 100 100 N N/A 30.03 1017 10 16 N/A

Powered by AerisWeather